• In Belarus
  • List of Countries
  • For 7 days
  • Water Temperature
  • Satellite Maps
  • Weather Map
  • Weather Widgets
  • user-avatar
    Login

    Hourly Weather Mohale's Hoek

    Today, 14 December, Friday

    Time Temperature Precipitation Wind Pressure Humidity
    00:00 +19°C° 0 mm 1 mps 634 mmHg 27%
    01:00 +19°C° 0 mm 1 mps 634 mmHg 28%
    02:00 +18°C° 0 mm 1 mps 634 mmHg 38%
    03:00 +18°C° 0 mm 1 mps 634 mmHg 38%
    04:00 +16°C° 0 mm 1 mps 634 mmHg 38%
    05:00 +16°C° 0 mm 1 mps 633 mmHg 38%
    06:00 +20°C° 0 mm 1 mps 635 mmHg 31%
    07:00 +23°C° 0 mm 2 mps 636 mmHg 24%
    08:00 +26°C° 0 mm 3 mps 637 mmHg 14%
    09:00 +28°C° 0 mm 4 mps 637 mmHg 13%
    10:00 +29°C° 0 mm 6 mps 637 mmHg 12%
    11:00 +32°C° 0 mm 7 mps 638 mmHg 12%
    12:00 +33°C° 0 mm 8 mps 637 mmHg 11%
    13:00 +33°C° 0 mm 8 mps 637 mmHg 11%
    14:00 +34°C° 0 mm 8 mps 637 mmHg 11%
    15:00 +34°C° 0 mm 8 mps 636 mmHg 11%
    16:00 +34°C° 0 mm 8 mps 636 mmHg 11%
    17:00 +34°C° 0 mm 7 mps 635 mmHg 11%
    18:00 +30°C° 0 mm 5 mps 635 mmHg 15%
    19:00 +28°C° 0 mm 3 mps 634 mmHg 19%
    20:00 +25°C° 0 mm 1 mps 633 mmHg 23%
    21:00 +25°C° 0 mm 1 mps 634 mmHg 21%
    22:00 +25°C° 0 mm 2 mps 634 mmHg 19%
    23:00 +25°C° 0 mm 2 mps 635 mmHg 18%

    Tomorrow, 15 December, Saturday

    Time Temperature Precipitation Wind Pressure Humidity
    00:00 +24°C° 0 mm 2 mps 634 mmHg 22%
    01:00 +23°C° 0 mm 2 mps 634 mmHg 26%
    02:00 +21°C° 0 mm 2 mps 634 mmHg 31%
    03:00 +20°C° 0 mm 2 mps 634 mmHg 35%
    04:00 +20°C° 0 mm 2 mps 634 mmHg 39%
    05:00 +20°C° 0 mm 1 mps 634 mmHg 43%
    06:00 +21°C° 0 mm 3 mps 634 mmHg 41%
    07:00 +23°C° 0 mm 4 mps 635 mmHg 39%
    08:00 +26°C° 0 mm 5 mps 636 mmHg 36%
    09:00 +28°C° 0 mm 5 mps 636 mmHg 32%
    10:00 +30°C° 0 mm 5 mps 637 mmHg 27%
    11:00 +33°C° 0 mm 5 mps 637 mmHg 23%
    12:00 +33°C° 0 mm 6 mps 636 mmHg 21%
    13:00 +33°C° 0 mm 6 mps 636 mmHg 19%
    14:00 +34°C° 0 mm 6 mps 636 mmHg 17%
    15:00 +34°C° 0 mm 6 mps 636 mmHg 16%
    16:00 +34°C° 0 mm 6 mps 635 mmHg 15%
    17:00 +34°C° 0 mm 6 mps 635 mmHg 14%
    18:00 +32°C° 0 mm 5 mps 634 mmHg 17%
    19:00 +28°C° 0 mm 4 mps 634 mmHg 19%
    20:00 +26°C° 0 mm 2 mps 634 mmHg 22%
    21:00 +24°C° 0 mm 2 mps 634 mmHg 30%
    22:00 +23°C° 0 mm 2 mps 634 mmHg 37%
    23:00 +21°C° 0 mm 2 mps 634 mmHg 44%

    Day after tomorrow, 16 December, Sunday

    Time Temperature Precipitation Wind Pressure Humidity
    00:00 +20°C° 0 mm 2 mps 634 mmHg 50%
    01:00 +20°C° 0 mm 2 mps 634 mmHg 56%
    02:00 +19°C° 0 mm 2 mps 634 mmHg 62%
    03:00 +19°C° 0 mm 2 mps 634 mmHg 64%
    04:00 +18°C° 0 mm 2 mps 634 mmHg 65%
    05:00 +18°C° 0 mm 2 mps 634 mmHg 66%
    06:00 +20°C° 0 mm 2 mps 634 mmHg 59%
    07:00 +22°C° 0 mm 3 mps 635 mmHg 52%
    08:00 +25°C° 0 mm 3 mps 636 mmHg 45%
    09:00 +27°C° 0 mm 4 mps 636 mmHg 38%
    10:00 +29°C° 0 mm 5 mps 636 mmHg 31%
    11:00 +32°C° 0 mm 6 mps 636 mmHg 23%
    12:00 +33°C° 0 mm 6 mps 636 mmHg 20%
    13:00 +34°C° 0 mm 6 mps 636 mmHg 17%
    14:00 +35°C° 0 mm 7 mps 636 mmHg 13%
    15:00 +35°C° 0 mm 6 mps 635 mmHg 13%
    16:00 +35°C° 0 mm 6 mps 635 mmHg 12%
    17:00 +35°C° 0 mm 6 mps 634 mmHg 11%
    18:00 +32°C° 0 mm 4 mps 634 mmHg 15%
    19:00 +29°C° 0 mm 3 mps 633 mmHg 19%
    20:00 +26°C° 0 mm 1 mps 632 mmHg 23%
    21:00 +25°C° 0 mm 1 mps 633 mmHg 26%
    22:00 +25°C° 0 mm 2 mps 633 mmHg 29%
    23:00 +24°C° 0 mm 2 mps 633 mmHg 31%

    17 December, Monday

    Time Temperature Precipitation Wind Pressure Humidity
    00:00 +24°C° 0 mm 2 mps 633 mmHg 33%
    01:00 +23°C° 0 mm 2 mps 633 mmHg 35%
    02:00 +23°C° 0 mm 2 mps 632 mmHg 37%
    03:00 +21°C° 0 mm 2 mps 632 mmHg 36%
    04:00 +21°C° 0 mm 2 mps 632 mmHg 36%
    05:00 +21°C° 0 mm 3 mps 632 mmHg 36%
    06:00 +24°C° 0 mm 3 mps 633 mmHg 35%
    07:00 +26°C° 0 mm 3 mps 634 mmHg 33%
    08:00 +28°C° 0 mm 4 mps 635 mmHg 31%
    09:00 +29°C° 0 mm 4 mps 635 mmHg 28%
    10:00 +32°C° 0 mm 5 mps 635 mmHg 26%
    11:00 +34°C° 0 mm 6 mps 636 mmHg 23%
    12:00 +34°C° 0 mm 6 mps 635 mmHg 22%
    13:00 +35°C° 0 mm 6 mps 635 mmHg 21%
    14:00 +35°C° 0 mm 5 mps 634 mmHg 19%
    15:00 +35°C° 0 mm 5 mps 634 mmHg 20%
    16:00 +35°C° 0 mm 5 mps 633 mmHg 20%
    17:00 +35°C° 0 mm 5 mps 633 mmHg 20%
    18:00 +32°C° 0 mm 5 mps 633 mmHg 25%
    19:00 +29°C° 0 mm 5 mps 632 mmHg 31%
    20:00 +26°C° 0 mm 5 mps 632 mmHg 37%
    21:00 +26°C° 0.1 mm 4 mps 633 mmHg 40%
    22:00 +25°C° 0.1 mm 2 mps 633 mmHg 43%
    23:00 +24°C° 0.1 mm 1 mps 633 mmHg 46%

    18 December, Tuesday

    Time Temperature Precipitation Wind Pressure Humidity
    00:00 +24°C° 0 mm 1 mps 633 mmHg 46%
    01:00 +24°C° 0 mm 1 mps 633 mmHg 47%
    02:00 +24°C° 0 mm 1 mps 632 mmHg 47%
    03:00 +23°C° 0 mm 2 mps 632 mmHg 48%
    04:00 +23°C° 0 mm 2 mps 632 mmHg 50%
    05:00 +21°C° 0 mm 2 mps 632 mmHg 52%
    06:00 +24°C° 0 mm 3 mps 632 mmHg 47%
    07:00 +25°C° 0 mm 3 mps 633 mmHg 43%
    08:00 +27°C° 0 mm 4 mps 633 mmHg 39%
    09:00 +28°C° 0 mm 5 mps 633 mmHg 37%
    10:00 +29°C° 0 mm 6 mps 634 mmHg 35%
    11:00 +31°C° 0 mm 8 mps 634 mmHg 33%
    12:00 +28°C° 0.9 mm 7 mps 633 mmHg 37%
    13:00 +27°C° 0.9 mm 6 mps 633 mmHg 41%
    14:00 +26°C° 0.9 mm 5 mps 632 mmHg 45%
    15:00 +26°C° 0 mm 5 mps 632 mmHg 41%
    16:00 +27°C° 0 mm 4 mps 632 mmHg 37%
    17:00 +28°C° 0 mm 4 mps 632 mmHg 32%
    18:00 +26°C° 0 mm 3 mps 632 mmHg 37%
    19:00 +25°C° 0 mm 3 mps 632 mmHg 41%
    20:00 +24°C° 0 mm 2 mps 631 mmHg 45%
    21:00 +23°C° 0 mm 2 mps 631 mmHg 47%
    22:00 +22°C° 0 mm 1 mps 631 mmHg 50%
    23:00 +21°C° 0 mm 1 mps 631 mmHg 52%

    19 December, Wednesday

    Time Temperature Precipitation Wind Pressure Humidity
    00:00 +21°C° 0 mm 1 mps 630 mmHg 53%
    01:00 +20°C° 0 mm 1 mps 630 mmHg 54%
    02:00 +20°C° 0 mm 1 mps 629 mmHg 55%
    03:00 +20°C° 0 mm 1 mps 629 mmHg 56%
    04:00 +19°C° 0 mm 1 mps 629 mmHg 56%
    05:00 +19°C° 0 mm 1 mps 629 mmHg 56%
    06:00 +21°C° 0 mm 2 mps 630 mmHg 50%
    07:00 +24°C° 0 mm 3 mps 631 mmHg 44%
    08:00 +26°C° 0 mm 3 mps 632 mmHg 38%
    09:00 +28°C° 0 mm 4 mps 632 mmHg 36%
    10:00 +29°C° 0 mm 6 mps 632 mmHg 33%
    11:00 +32°C° 0 mm 7 mps 632 mmHg 30%
    12:00 +30°C° 0 mm 6 mps 632 mmHg 32%
    13:00 +30°C° 0 mm 5 mps 631 mmHg 33%
    14:00 +29°C° 0 mm 5 mps 631 mmHg 35%
    15:00 +28°C° 0.1 mm 5 mps 631 mmHg 38%
    16:00 +28°C° 0.1 mm 5 mps 630 mmHg 40%
    17:00 +27°C° 0.1 mm 5 mps 630 mmHg 43%
    18:00 +25°C° 1.1 mm 5 mps 630 mmHg 52%
    19:00 +22°C° 1.1 mm 4 mps 630 mmHg 61%
    20:00 +20°C° 1.1 mm 3 mps 630 mmHg 69%
    21:00 +20°C° 0 mm 2 mps 631 mmHg 70%
    22:00 +20°C° 0 mm 2 mps 631 mmHg 70%
    23:00 +19°C° 0 mm 2 mps 631 mmHg 70%
    Show more